Date,TemperatureHighF,TemperatureAvgF,TemperatureLowF,DewpointHighF,DewpointAvgF,DewpointLowF,HumidityHigh,HumidityAvg,HumidityLow,PressureMaxIn,PressureMinIn,WindSpeedMaxMPH,WindSpeedAvgMPH,GustSpeedMaxMPH,PrecipitationSumIn
2013-1-1,66.7,54.0,48.7,64.7,51.7,41.2,98,92,75,30.27,30.00,8,2,8,2.32
2013-1-2,48.7,45.2,42.4,41.9,38.2,35.1,82,77,72,30.36,30.21,7,2,8,0.04
2013-1-3,67.6,46.5,38.7,35.5,31.4,24.0,78,58,25,30.47,30.33,6,2,8,0.04
2013-1-4,51.8,47.0,42.1,31.7,28.6,26.8,57,49,40,30.56,30.42,7,1,7,0.00
2013-1-5,48.4,46.3,44.2,42.0,37.1,29.3,85,71,50,30.45,30.30,5,0,6,0.51
2013-1-6,73.9,50.1,41.9,43.0,38.2,32.6,91,66,29,30.39,30.30,11,2,11,0.00
2013-1-7,63.3,49.3,37.0,40.1,35.1,31.8,85,61,36,30.39,30.18,5,0,5,0.00
2013-1-8,63.9,56.7,51.4,61.6,48.8,38.0,93,75,60,30.18,30.03,13,0,13,0.08
2013-1-9,68.4,64.4,62.1,67.5,63.1,59.6,98,95,90,30.18,30.00,10,1,10,3.11
2013-1-10,81.1,63.1,55.2,66.2,57.0,48.3,98,82,39,30.12,30.06,12,1,12,0.83
2013-1-11,72.5,59.3,47.5,67.9,49.3,43.3,96,74,37,30.15,30.00,9,1,9,0.00
2013-1-12,75.2,71.7,69.4,70.2,68.3,64.5,96,89,71,30.03,29.88,15,4,15,0.08
2013-1-15,36.9,36.2,35.6,35.6,35.1,34.8,98,96,95,30.18,30.15,10,3,10,0.08
2013-1-16,67.3,40.7,35.1,39.5,33.5,26.8,98,78,34,30.33,30.15,10,1,10,0.08
2013-1-17,75.6,45.5,31.1,36.7,28.7,25.2,81,55,23,30.53,30.30,9,1,9,0.08
2013-1-18,83.5,47.7,33.8,38.1,30.2,23.2,82,55,20,30.62,30.45,6,0,6,0.00
2013-1-19,77.7,50.1,33.1,44.4,36.3,26.4,81,61,31,30.45,30.27,8,1,8,0.00
2013-1-20,85.1,54.3,37.9,50.5,40.1,33.0,85,63,27,30.36,30.21,9,1,9,0.00
2013-1-21,79.9,55.8,41.4,50.5,41.3,35.7,83,61,30,30.30,30.21,5,0,5,0.00
2013-1-22,84.2,54.9,41.2,46.2,38.9,33.5,77,58,24,30.42,30.30,9,1,9,0.00
2013-1-23,78.4,58.1,43.5,54.9,46.0,37.5,85,67,37,30.45,30.33,13,2,13,0.00
2013-1-24,75.6,62.0,50.9,61.4,54.3,45.1,92,77,54,30.39,30.24,11,2,11,0.00
2013-1-25,88.9,65.7,55.9,63.5,56.1,51.2,98,74,31,30.30,30.18,13,2,13,0.00
2013-1-26,87.1,64.5,55.9,65.0,54.6,50.1,93,73,31,30.30,30.18,11,1,11,0.00
2013-1-27,75.2,66.1,57.0,61.9,57.8,52.6,96,76,52,30.27,30.18,15,3,15,0.00
2013-1-28,76.6,70.2,66.0,67.2,62.4,60.4,95,77,60,30.24,30.12,13,3,13,0.00
2013-1-29,77.5,71.9,68.0,68.8,66.9,63.3,97,85,62,30.12,29.77,16,7,22,0.00
2013-1-30,77.5,67.5,41.0,68.5,58.7,22.9,98,77,22,30.30,29.77,22,6,22,0.28
2013-1-31,78.6,50.5,34.0,37.3,29.1,23.1,76,48,21,30.39,30.27,10,2,11,0.00
2013-2-1,86.7,57.0,45.0,41.8,37.5,32.9,74,51,19,30.47,30.33,8,1,8,0.00
2013-2-2,82.9,58.9,44.6,53.3,44.2,35.6,82,61,31,30.36,30.24,9,1,9,0.00
2013-2-3,93.9,60.4,48.6,52.6,39.0,26.1,88,52,16,30.39,30.18,5,0,6,0.00
2013-2-4,70.7,59.7,48.2,59.4,49.4,36.0,88,69,49,30.18,29.94,8,1,8,0.16
2013-2-5,90.0,67.2,60.1,63.7,59.2,54.9,94,78,34,30.09,29.97,6,1,6,0.59
2013-2-6,68.0,62.5,59.0,63.6,59.3,56.0,95,90,75,30.15,29.97,6,0,8,0.59
2013-2-7,82.9,63.2,58.5,60.0,57.5,53.8,96,83,44,30.06,29.94,5,0,6,0.00
2013-2-8,80.4,61.9,52.0,61.0,51.8,44.7,95,72,33,30.24,30.06,6,2,10,0.00
2013-2-9,68.5,59.1,48.6,61.7,52.1,44.1,86,78,62,30.24,30.00,10,2,10,0.00
2013-2-10,75.7,67.8,62.8,69.0,64.1,58.3,95,88,67,30.03,29.88,15,4,15,0.16
2013-2-11,63.7,56.9,53.6,61.6,54.6,51.5,98,92,73,30.18,30.03,5,0,6,1.14
2013-2-12,68.2,59.0,55.0,67.1,57.2,51.2,98,94,84,30.09,29.83,4,0,8,0.12
2013-2-13,79.5,53.6,43.5,51.8,38.8,32.6,88,60,24,30.15,30.00,8,2,11,0.04
2013-2-14,87.4,52.2,36.9,43.5,36.4,31.3,87,59,20,30.24,30.12,5,0,5,0.00
2013-2-15,71.2,53.9,39.6,45.1,36.3,30.3,85,55,29,30.36,30.18,11,2,11,0.00
2013-2-16,77.2,49.4,37.6,33.0,23.5,18.7,59,37,19,30.47,30.30,10,3,10,0.00
2013-2-17,84.7,55.1,37.0,43.4,36.2,26.3,74,52,22,30.36,30.18,13,3,13,0.00
2013-2-18,71.4,64.8,57.4,64.7,54.0,42.7,98,70,50,30.18,29.94,14,5,15,0.79
2013-2-19,91.0,58.0,46.2,56.8,38.4,26.0,98,54,18,30.33,30.09,6,2,6,0.00
2013-2-20,64.4,55.2,47.8,39.2,31.5,24.0,52,41,30,30.27,30.00,13,2,13,0.00
2013-2-21,73.8,65.4,56.7,67.1,57.7,39.2,87,76,52,30.00,29.77,15,4,15,0.00
2013-2-22,66.4,61.5,57.0,58.2,48.5,41.4,89,64,43,30.03,29.91,6,1,6,0.00
2013-2-23,77.7,59.7,50.2,45.5,42.7,40.8,74,55,32,30.06,29.94,5,1,6,0.00
2013-2-24,73.8,57.9,43.7,54.5,44.0,37.3,79,62,33,30.03,29.77,6,0,8,0.00
2013-2-25,90.1,65.9,49.8,69.1,49.7,22.1,92,63,21,29.77,29.53,11,2,11,0.04
2013-2-26,83.1,55.1,44.2,39.2,30.2,24.3,57,40,21,30.03,29.77,8,2,10,0.00
2013-2-27,87.8,58.3,44.1,43.6,34.8,24.6,74,45,19,30.21,30.00,10,2,10,0.00
2013-2-28,70.9,49.0,41.5,32.3,25.1,21.2,53,40,24,30.30,30.18,8,2,8,0.00
2013-3-1,80.8,51.0,38.5,35.6,27.3,23.5,57,43,19,30.30,30.18,11,2,11,0.00
2013-3-2,70.2,45.8,36.0,30.2,22.7,17.4,58,41,23,30.39,30.27,14,3,14,0.00
2013-3-3,82.2,48.9,30.4,38.1,27.1,20.9,71,47,20,30.36,30.15,12,2,12,0.00
2013-3-4,82.4,64.7,51.1,56.8,50.1,38.1,79,61,36,30.15,29.91,22,5,22,0.00
2013-3-5,88.9,65.5,49.6,59.3,41.8,20.1,82,48,18,30.36,29.91,16,3,16,0.00
2013-3-6,89.6,54.1,37.0,38.8,24.7,18.0,57,34,14,30.47,30.30,8,1,8,0.00
2013-3-7,91.8,55.4,38.8,41.8,31.7,26.4,64,44,17,30.39,30.27,10,1,10,0.00
2013-3-8,84.4,59.7,43.2,50.4,42.0,32.9,78,54,28,30.33,30.18,11,2,11,0.00
2013-3-9,73.6,64.5,58.6,60.4,55.8,46.0,87,74,54,30.18,29.91,17,4,17,0.00
2013-3-10,72.9,62.6,55.6,62.5,55.5,33.6,94,78,49,30.09,29.88,16,3,16,0.08
2013-3-11,83.5,54.2,42.6,38.2,29.5,23.5,58,40,20,30.18,30.03,10,2,12,0.00
2013-3-12,96.4,55.7,35.4,43.1,32.6,27.3,76,47,16,30.33,30.15,6,1,6,0.00
2013-3-13,95.0,57.5,42.3,42.8,33.1,24.8,74,47,14,30.50,30.33,8,0,8,0.00
2013-3-14,92.5,58.2,41.5,41.8,32.9,28.1,64,42,17,30.50,30.36,10,2,10,0.00
2013-3-15,90.1,62.6,44.2,55.8,45.9,35.8,84,58,27,30.39,30.15,13,2,13,0.00
2013-3-16,88.7,66.5,56.7,60.8,53.8,47.5,92,68,28,30.15,29.97,14,3,14,0.00
2013-3-17,88.9,70.0,62.2,66.0,61.0,56.8,90,75,36,30.00,29.83,17,3,17,0.00
2013-3-18,100.2,75.3,68.5,68.0,62.9,55.5,94,70,26,29.97,29.80,13,2,13,0.00
2013-3-19,100.8,77.3,55.0,61.6,47.2,34.4,79,38,19,30.09,29.97,11,2,11,0.00
2013-3-20,99.3,65.7,53.6,48.8,38.0,25.6,77,39,14,30.27,30.03,11,2,11,0.04
2013-3-21,73.6,61.4,49.8,54.1,39.2,32.6,67,45,27,30.12,29.83,17,4,17,0.00
2013-3-22,83.7,72.1,63.1,67.3,62.4,52.0,89,73,48,29.85,29.77,14,3,14,0.00
2013-3-23,81.3,72.2,67.8,70.0,66.8,62.8,97,84,60,29.85,29.62,4,0,4,0.00
2013-3-24,75.7,63.6,47.3,64.5,41.0,23.7,88,48,23,30.24,29.71,17,4,17,0.00
2013-3-25,73.0,52.3,37.9,33.1,26.0,19.2,64,39,22,30.45,30.21,12,2,12,0.00
2013-3-26,71.2,51.2,34.3,31.6,23.5,17.5,54,35,22,30.53,30.39,10,2,10,0.00
2013-3-27,73.2,52.5,35.6,36.4,31.1,22.8,70,47,24,30.48,30.30,10,2,10,0.00
2013-3-28,73.9,54.6,46.0,51.9,41.5,34.7,82,63,35,30.39,30.27,10,1,10,0.00
2013-3-29,79.0,64.9,53.6,58.6,52.9,48.9,93,69,37,30.36,30.21,13,2,13,0.00
2013-3-30,80.1,67.8,60.1,62.4,56.8,50.4,94,71,39,30.24,30.06,13,2,13,0.00
2013-3-31,81.9,66.1,60.8,67.4,60.5,51.4,96,84,43,30.06,29.94,11,2,11,0.83
2013-4-1,88.7,69.9,58.1,62.0,56.5,50.4,93,67,32,30.18,30.03,8,0,8,0.00
2013-4-2,78.3,67.7,59.0,60.9,56.4,50.9,90,69,43,30.12,29.94,10,1,10,0.43
2013-4-3,66.0,59.0,51.6,63.1,52.0,44.5,96,78,59,30.15,29.85,10,2,10,2.56
2013-4-4,59.2,52.3,49.6,48.6,43.6,39.9,86,73,57,30.21,30.06,9,2,10,2.56
2013-4-5,81.0,57.4,46.4,49.0,42.9,40.0,85,63,29,30.30,30.15,7,1,7,0.00
2013-4-6,76.8,62.0,50.9,58.0,50.6,46.1,94,70,37,30.21,30.06,13,2,13,0.00
2013-4-7,81.3,68.5,59.4,63.2,57.6,51.2,96,72,40,30.09,29.97,14,3,14,0.00
2013-4-8,82.2,72.3,66.6,65.8,61.6,55.2,92,71,43,30.00,29.91,14,4,14,0.00
2013-4-9,80.8,73.7,67.5,68.8,67.0,64.1,97,80,65,29.94,29.88,19,5,19,0.00
2013-4-10,83.7,75.9,59.2,69.3,67.3,53.7,86,75,56,29.94,29.83,20,6,20,0.16
2013-4-11,67.5,56.9,48.9,55.1,50.4,47.0,96,80,51,29.97,29.83,10,1,10,1.34
2013-4-12,80.8,66.1,55.8,47.6,43.5,39.5,73,47,26,30.06,29.97,4,0,4,0.00
2013-4-13,84.7,65.9,48.2,55.5,47.9,42.5,88,58,27,30.09,29.91,11,2,11,0.00
2013-4-14,84.6,68.3,62.1,63.1,57.1,53.3,92,69,39,29.91,29.77,9,0,9,0.00
2013-4-15,88.9,74.4,63.0,70.4,64.5,58.3,98,75,39,29.97,29.83,10,2,10,0.00
2013-4-16,81.7,76.3,73.0,72.8,70.3,67.4,97,83,65,30.06,29.91,13,3,13,0.00
2013-4-17,82.6,76.6,73.4,71.4,69.9,67.2,92,80,61,30.06,29.91,17,5,17,0.00
2013-4-18,84.6,71.6,54.3,71.4,63.9,45.5,90,77,57,30.09,29.80,20,5,20,0.16
2013-4-19,69.6,55.7,45.5,45.5,35.8,29.8,72,49,28,30.30,30.09,15,4,15,0.00
2013-4-20,75.0,55.9,37.9,42.6,36.5,32.6,85,54,24,30.33,30.15,11,1,11,0.00
2013-4-21,81.5,60.9,45.1,50.0,44.0,40.3,89,60,30,30.27,30.15,8,0,8,0.00
2013-4-22,82.4,65.3,49.1,56.2,48.8,44.2,85,60,30,30.21,30.03,10,1,10,0.00
2013-4-23,85.5,72.2,59.4,69.3,62.1,54.7,93,73,42,30.09,29.97,13,2,13,0.00
2013-4-24,75.4,66.6,55.0,70.2,55.8,46.7,93,71,41,30.27,30.00,11,3,11,0.16
2013-4-25,85.5,61.6,52.5,48.5,44.2,37.2,72,56,24,30.39,30.27,8,0,8,0.00
2013-4-26,80.8,71.0,63.1,68.5,56.2,42.0,91,61,41,30.30,30.18,10,2,10,0.00
2013-4-27,82.8,73.4,68.4,69.8,66.3,61.6,98,80,55,30.21,30.03,17,2,17,0.12
2013-4-28,85.1,72.8,64.2,78.1,63.1,53.6,98,76,39,30.09,29.97,10,1,10,0.12
2013-4-29,89.1,73.5,61.9,67.3,60.2,54.6,93,67,33,30.03,29.91,10,1,10,0.00
2013-4-30,88.7,74.7,67.5,68.5,62.0,54.7,92,68,38,29.94,29.83,11,1,11,0.00
2013-5-1,91.0,75.8,67.5,67.3,63.0,57.7,90,67,35,29.97,29.88,6,0,6,0.04
2013-5-2,82.6,70.2,57.9,64.8,59.0,47.0,90,69,46,30.15,29.94,10,2,10,0.04
2013-5-3,72.9,55.8,47.1,47.0,40.2,29.8,68,57,32,30.18,30.09,13,4,13,0.04
2013-5-4,79.0,60.6,40.3,50.8,40.2,34.1,84,52,22,30.15,29.91,13,2,13,0.00
2013-5-5,78.4,60.9,47.7,50.9,40.0,35.7,71,49,28,30.15,30.00,10,2,10,0.00
2013-5-6,90.3,63.6,44.8,51.3,44.9,38.5,83,56,24,30.18,30.00,8,1,8,0.00
2013-5-7,94.3,75.8,56.7,61.5,51.7,44.7,95,50,21,30.15,30.03,9,1,9,0.00
2013-5-8,86.7,69.9,56.3,67.2,57.1,49.0,98,69,32,30.18,30.06,10,2,10,0.00
2013-5-9,78.8,72.6,66.9,72.5,67.4,63.5,97,84,68,30.12,29.97,14,2,14,0.00
2013-5-10,76.8,68.8,65.5,74.5,67.7,64.9,98,96,87,30.15,29.91,11,1,11,4.25
2013-5-11,89.1,72.7,64.8,83.1,64.3,54.6,98,78,41,30.15,29.97,6,0,6,0.24
2013-5-12,97.9,72.7,58.8,66.8,55.3,47.4,98,62,21,30.24,30.12,8,1,8,0.24
2013-5-13,89.2,66.9,50.2,58.2,47.2,36.3,98,60,21,30.39,30.24,8,1,8,0.00
2013-5-14,89.4,70.1,54.5,67.4,52.6,39.5,98,62,22,30.33,30.18,10,2,10,0.00
2013-5-15,85.6,71.0,63.0,68.1,61.4,54.8,98,75,38,30.24,30.03,10,2,10,0.00
2013-5-16,87.1,75.2,67.5,68.9,63.8,57.5,96,71,39,30.06,29.94,13,3,13,0.00
2013-5-17,91.2,78.5,72.3,71.8,67.9,62.0,95,73,40,30.06,29.94,12,3,12,0.00
2013-5-18,92.1,80.1,73.6,72.5,67.7,60.5,94,69,37,30.06,30.00,13,4,13,0.00
2013-5-19,91.2,80.8,75.0,72.8,69.3,61.7,89,70,39,30.03,29.94,15,4,15,0.00
2013-5-20,90.9,81.1,76.3,73.6,71.0,66.4,85,73,46,30.00,29.88,13,5,13,0.00
2013-5-21,91.4,80.5,75.9,76.0,71.7,65.9,98,76,46,29.97,29.83,13,3,13,0.08
2013-5-22,95.5,77.5,67.5,79.7,68.8,60.6,98,79,37,30.00,29.88,9,1,9,0.16
2013-5-23,94.3,79.3,70.0,77.9,68.5,60.1,98,75,38,30.15,30.00,10,2,10,0.00
2013-5-24,98.4,79.1,71.1,80.6,71.3,60.7,97,81,33,30.21,30.09,10,0,10,0.12
2013-5-25,94.3,78.9,68.2,72.0,65.3,59.1,98,67,35,30.24,30.15,10,1,10,0.00
2013-5-26,93.2,78.8,69.6,72.2,64.7,58.8,96,66,33,30.18,30.12,9,2,9,0.00
2013-5-27,91.4,76.5,67.6,71.8,66.0,55.3,98,74,33,30.15,30.03,13,2,13,0.00
2013-5-28,92.7,79.0,73.2,75.0,67.4,58.7,98,72,36,30.09,30.00,15,3,15,0.08
2013-5-29,90.7,78.6,72.5,74.5,69.7,59.8,97,78,38,30.03,29.91,13,3,13,0.08
2013-5-30,90.7,81.7,75.4,73.2,69.2,64.2,90,67,44,30.00,29.91,15,4,15,0.00
2013-5-31,93.2,82.1,76.5,82.5,72.1,63.0,98,74,38,30.00,29.94,13,4,13,0.28
2013-6-1,95.5,83.0,76.8,76.6,71.3,62.7,97,71,37,30.00,29.91,11,3,11,0.28
2013-6-2,91.6,77.5,69.3,75.4,69.1,61.1,97,79,40,30.09,29.94,9,1,9,0.04
2013-6-3,100.6,79.3,67.6,73.8,64.5,56.2,98,67,26,30.00,29.88,6,0,6,0.04
2013-6-4,100.4,78.6,69.1,72.9,66.3,53.9,97,72,27,30.00,29.88,6,0,6,0.04
2013-6-5,106.3,84.8,72.9,73.4,68.4,61.0,94,66,27,29.97,29.85,8,0,8,0.04
2013-6-6,99.9,78.4,67.8,78.9,71.5,59.8,98,83,29,29.94,29.80,6,0,10,1.06
2013-6-7,96.8,76.0,67.3,76.8,64.9,55.8,97,75,30,30.00,29.88,0,0,0,0.00
2013-6-8,94.1,77.4,66.6,70.8,64.1,57.2,96,68,32,30.00,29.91,8,0,8,0.00
2013-6-9,95.0,74.9,69.6,74.7,70.2,60.4,97,88,34,30.03,29.94,11,0,11,2.32
2013-6-10,100.4,9.9,70.7,84.3,-78.6,-99.9,95,10,27,30.06,30.00,6,-873,6,0.00
2013-6-11,96.4,48.1,76.1,70.7,-14.9,-99.9,83,20,28,30.12,30.03,9,-462,10,0.00
2013-6-12,98.1,84.1,73.4,76.9,65.1,54.3,93,59,26,30.15,30.06,10,1,10,0.00
2013-6-13,104.4,86.2,73.9,76.4,64.6,53.1,93,55,21,30.12,29.97,5,0,5,0.00
2013-6-14,105.8,86.2,71.8,76.2,66.6,57.3,95,59,22,30.06,29.91,9,1,9,0.12
2013-6-15,104.0,82.9,72.3,77.4,67.1,56.3,95,66,23,30.06,29.97,8,0,8,0.04
2013-6-16,100.4,84.5,72.9,76.2,62.2,47.2,93,55,19,30.12,30.00,8,1,8,0.00
2013-6-17,99.1,82.9,73.4,75.3,65.2,54.5,92,61,25,30.09,29.97,10,1,10,0.00
2013-6-18,98.6,81.7,72.1,74.6,65.4,53.8,96,63,27,30.06,29.97,8,1,8,0.63
2013-6-19,93.2,78.7,72.5,81.9,70.4,54.9,93,78,37,30.09,30.00,11,0,11,1.02
2013-6-20,100.0,82.8,71.4,78.2,63.9,47.5,93,61,18,30.15,30.06,11,1,14,0.00
2013-6-21,102.4,82.4,71.6,78.0,66.1,47.3,92,65,17,30.21,30.09,11,0,13,1.02
2013-6-22,100.2,83.4,72.9,77.6,62.6,47.9,92,57,19,30.15,30.03,8,1,8,0.00
2013-6-23,98.1,84.5,73.2,76.4,61.2,48.0,92,53,19,30.12,30.03,9,1,9,0.00
2013-6-24,98.1,83.3,73.6,73.0,61.3,46.3,92,54,18,30.15,30.09,11,2,11,0.04
2013-6-25,97.5,84.0,73.2,72.7,61.2,50.8,90,51,23,30.12,30.03,11,2,11,0.00
2013-6-26,99.0,86.1,77.7,69.5,60.4,46.5,72,46,19,30.09,30.00,11,2,11,0.00
2013-6-27,103.3,86.1,73.2,75.1,61.1,47.7,92,51,17,30.09,30.00,0,0,0,0.00
2013-6-28,100.6,86.6,75.9,73.7,63.6,50.8,88,52,21,30.06,29.85,8,0,8,0.00
2013-6-29,107.2,89.0,77.4,69.5,57.2,45.3,70,40,15,29.88,29.77,8,1,8,0.00
2013-6-30,106.2,83.8,67.8,63.9,50.5,34.2,83,39,10,29.91,29.83,4,0,6,0.00
2013-7-1,98.6,78.4,65.1,61.9,51.0,42.4,72,43,16,30.00,29.91,5,0,5,0.00
2013-7-2,104.4,80.8,65.7,62.9,52.2,39.2,89,46,14,30.06,30.00,5,0,5,0.00
2013-7-3,104.5,77.1,65.5,81.7,54.9,41.8,83,54,14,30.09,30.02,5,0,5,0.00
2013-7-4,73.6,67.8,0.0,57.3,52.1,0.0,61,52,52,30.03,30.03,0,0,0,0.00
2013-7-5,107.2,82.0,68.4,66.3,57.1,43.5,85,52,14,30.03,29.97,10,0,10,0.00
2013-7-6,97.7,92.8,74.7,88.1,85.2,74.4,99,79,71,29.97,29.89,17,3,17,0.00
2013-7-7,85.3,79.8,75.9,77.5,68.5,0.0,86,69,52,30.09,30.06,10,1,10,0.00
2013-7-8,98.6,82.9,73.2,72.9,63.6,51.7,92,62,22,30.18,30.09,9,1,9,0.00
2013-7-9,100.9,83.0,76.5,71.4,63.3,47.9,84,58,17,30.21,30.12,9,1,9,0.00
2013-7-10,83.5,23.3,0.0,72.5,20.0,0.0,88,21,51,30.15,30.03,9,2,9,0.00
2013-7-11,100.4,86.6,76.6,69.6,63.1,52.8,77,50,23,30.09,29.97,6,0,6,0.00
2013-7-12,100.8,86.0,76.3,72.1,63.5,52.5,81,52,25,30.03,29.94,8,0,8,0.00
2013-7-13,100.4,85.5,75.6,68.1,55.2,43.4,74,41,16,30.03,29.91,6,0,6,0.00
2013-7-14,93.9,82.5,71.1,64.5,57.7,49.6,69,45,24,30.03,29.94,6,0,6,0.00
2013-7-15,96.4,83.2,74.3,70.0,62.0,51.8,73,51,27,30.15,30.00,13,1,13,0.04
2013-7-16,90.1,77.1,75.0,72.0,66.9,56.2,83,71,38,30.21,30.12,11,0,11,0.39
2013-7-17,95.9,81.8,74.7,73.4,67.1,55.1,88,65,27,30.27,30.15,6,1,6,0.04
2013-7-18,99.1,80.7,72.1,71.4,64.2,50.5,87,63,22,30.21,30.06,13,1,13,0.16
2013-7-19,98.6,79.7,73.4,70.1,65.3,52.8,84,66,27,30.12,30.03,9,0,9,2.17
2013-7-20,96.8,81.0,72.1,71.6,65.0,54.2,88,63,26,30.06,29.97,8,0,8,0.00
2013-7-21,91.6,80.1,74.8,72.3,66.2,58.9,87,65,38,30.09,30.00,14,1,14,0.67
2013-7-22,96.4,85.8,78.4,75.7,66.1,56.0,86,56,28,30.12,30.03,11,2,11,0.00
2013-7-23,95.7,85.0,77.9,74.4,66.7,58.0,84,57,30,30.12,30.00,11,2,11,0.00
2013-7-24,98.1,86.0,76.5,71.5,65.1,56.2,80,53,28,30.09,29.94,8,2,8,0.00
2013-7-25,99.1,87.2,79.5,72.8,66.8,59.1,79,54,28,30.12,30.00,6,0,6,0.00
2013-7-26,101.5,86.4,76.8,73.7,65.0,56.1,82,53,24,30.12,30.00,6,1,7,0.00
2013-7-27,96.8,86.1,79.0,71.1,65.5,56.3,72,52,27,30.03,29.91,9,2,9,0.00
2013-7-28,93.2,82.3,76.3,70.4,66.5,60.2,77,61,37,30.06,29.97,10,1,10,0.08
2013-7-29,100.9,85.5,75.0,74.4,64.1,52.7,86,55,22,30.15,30.03,8,1,8,0.00
2013-7-30,99.0,84.9,73.2,74.0,62.4,45.1,84,53,17,30.21,30.09,9,1,9,0.00
2013-7-31,101.3,85.8,73.6,72.3,63.4,52.8,80,52,23,30.18,30.03,9,1,9,0.00
2013-8-1,102.9,87.8,76.1,73.3,64.8,54.2,83,51,21,30.09,29.97,6,0,6,0.00
2013-8-2,101.3,88.1,77.4,72.2,63.7,53.7,78,49,24,30.06,29.97,9,1,9,0.00
2013-8-3,103.1,88.0,76.3,73.1,64.2,52.8,80,50,21,30.12,30.06,8,1,8,0.00
2013-8-4,105.3,86.4,77.7,74.2,67.4,52.5,80,57,19,30.15,30.06,10,0,10,0.35
2013-8-5,101.1,87.5,76.8,75.7,65.2,52.2,86,53,22,30.12,30.00,8,2,8,0.35
2013-8-6,102.9,87.9,77.5,73.3,65.5,54.1,82,52,21,30.06,29.97,12,2,12,0.35
2013-8-7,102.9,88.5,77.9,73.4,65.0,52.5,79,50,21,30.06,29.94,11,2,11,0.35
2013-8-8,102.4,86.9,75.4,73.9,63.3,50.0,82,51,20,30.03,29.94,8,1,8,0.35
2013-8-9,105.3,88.2,75.6,72.6,64.0,50.7,82,51,18,30.06,29.94,10,1,10,0.00
2013-8-10,100.4,83.3,77.4,73.6,68.1,56.3,83,63,26,30.12,30.03,10,0,10,0.04
2013-8-11,99.7,82.3,75.4,75.5,68.3,59.2,88,65,28,30.15,30.09,8,0,8,0.43
2013-8-12,96.6,84.9,76.1,75.8,66.6,56.7,87,59,27,30.15,30.03,6,1,8,0.00
2013-8-13,102.7,88.2,78.3,74.8,65.5,55.1,83,52,24,30.12,29.97,8,2,8,0.00
2013-8-14,100.6,84.8,78.3,74.6,67.5,56.0,78,60,27,30.06,29.97,6,0,6,0.00
2013-8-15,90.0,80.3,74.1,70.9,65.9,58.3,84,64,38,30.09,29.97,5,0,5,0.08
2013-8-16,99.1,83.2,71.8,69.8,61.6,51.6,82,54,25,30.06,29.97,5,0,5,0.00
2013-8-17,98.8,81.3,69.1,59.7,53.7,43.6,68,44,17,30.06,29.97,8,1,8,0.00
2013-8-18,100.6,81.6,71.2,66.6,58.6,44.9,80,50,18,30.09,30.00,5,0,5,0.00
2013-8-19,102.2,83.8,70.3,67.0,56.7,43.3,76,46,16,30.12,30.00,7,0,7,0.00
2013-8-20,87.6,79.1,72.9,68.6,64.3,57.2,78,62,38,30.12,30.03,6,0,6,0.00
2013-8-21,103.3,84.0,72.3,70.9,63.6,54.2,86,56,22,30.15,30.06,10,1,10,0.00
2013-8-22,101.8,85.6,74.1,69.6,62.7,51.4,78,51,23,30.15,30.03,10,0,10,0.00
2013-8-23,103.6,85.3,74.3,70.5,64.0,55.3,79,53,22,30.09,29.94,9,0,9,0.00
2013-8-24,102.4,84.7,73.6,68.6,61.9,53.6,80,51,22,30.12,30.00,10,0,10,0.00
2013-8-25,92.1,80.7,75.2,69.1,65.5,59.1,80,61,35,30.21,30.09,10,0,10,0.20
2013-8-26,85.3,76.3,73.4,72.0,69.6,63.5,90,80,51,30.21,30.15,10,1,10,0.24
2013-8-27,92.7,80.9,71.2,71.4,62.9,51.4,91,60,26,30.18,30.09,8,0,8,0.00
2013-8-28,100.9,84.5,72.3,70.2,61.1,48.1,87,52,19,30.15,30.03,8,0,8,0.00
2013-8-29,103.6,83.1,74.5,71.1,64.7,48.1,82,59,18,30.12,30.00,9,0,9,0.00
2013-8-30,100.6,84.2,73.2,70.6,62.6,53.8,81,53,22,30.09,29.97,9,1,9,0.00
2013-8-31,101.3,83.3,72.5,71.0,61.9,46.3,84,55,17,30.03,29.94,11,1,11,0.00
2013-9-1,104.0,85.1,72.9,71.2,61.9,47.7,84,52,17,30.00,29.91,9,1,9,0.00
2013-9-2,107.2,86.1,74.3,72.6,63.3,48.0,80,52,16,30.06,29.91,8,1,8,0.00
2013-9-3,110.1,86.1,76.1,70.9,63.4,47.4,77,53,14,30.06,29.94,8,0,8,0.00
2013-9-4,103.6,84.5,73.6,69.7,63.1,54.7,82,54,23,30.12,30.00,10,1,10,0.00
2013-9-5,99.9,83.4,74.7,70.5,64.7,54.9,85,57,26,30.15,30.06,9,0,9,0.00
2013-9-6,102.9,84.1,73.4,70.1,63.2,50.9,84,54,21,30.15,30.03,10,1,10,0.00
2013-9-7,101.3,79.5,73.8,70.1,65.9,58.2,80,66,26,30.12,30.03,0,0,0,0.00
2013-9-8,102.7,82.6,70.0,69.8,61.6,48.5,86,56,18,30.06,29.97,0,0,0,0.00
2013-9-9,102.7,82.0,71.8,69.0,62.5,48.4,80,58,17,30.09,30.00,0,0,0,0.00
2013-9-12,105.8,84.7,72.3,67.3,58.2,44.0,78,48,15,30.12,29.97,8,1,8,0.00
2013-9-13,110.7,86.0,71.8,68.1,57.7,44.1,83,47,13,30.00,29.85,8,1,8,0.00
2013-9-14,107.1,84.1,75.2,67.6,60.6,49.0,76,50,16,30.03,29.91,9,0,9,0.00
2013-9-15,102.4,83.3,73.4,68.3,62.7,51.6,83,55,19,30.09,30.00,11,1,11,0.00
2013-9-16,107.6,84.8,72.3,69.2,61.3,45.5,82,52,15,30.12,30.03,8,1,8,0.00
2013-9-17,105.8,84.9,72.7,70.8,61.1,47.3,82,51,16,30.12,30.00,10,1,10,0.00
2013-9-18,106.2,85.1,74.5,68.6,60.8,47.7,79,49,15,30.09,30.00,8,1,9,0.00
2013-9-19,99.9,83.0,75.9,71.0,64.6,56.0,79,56,25,30.06,29.94,8,1,10,0.20
2013-9-20,79.5,76.4,73.9,76.3,72.8,70.8,91,89,79,30.00,29.83,17,1,17,7.40
2013-9-21,75.4,73.2,71.1,72.1,70.3,68.3,91,91,89,29.88,29.80,6,0,6,1.54
2013-9-22,94.1,73.6,66.0,68.3,56.1,43.6,91,60,21,29.91,29.83,6,0,6,0.00
2013-9-23,101.5,79.6,65.1,67.6,54.8,46.9,66,45,18,29.88,29.83,5,0,5,0.00
2013-9-24,103.8,85.0,75.4,73.7,65.4,55.4,84,56,23,29.91,29.83,8,0,8,0.00
2013-9-25,102.2,78.2,65.8,68.8,57.7,38.9,86,58,15,29.94,29.85,5,0,5,0.00
2013-9-26,111.2,79.5,63.3,66.6,54.4,36.7,91,54,10,30.00,29.88,5,0,5,0.00
2013-9-27,106.2,79.5,67.6,74.6,59.0,37.9,91,63,11,30.06,29.97,8,1,8,0.00
2013-9-28,98.4,80.7,70.5,69.1,59.6,48.4,90,55,19,30.09,30.00,8,2,8,0.00
2013-9-29,92.8,76.3,71.6,70.1,65.8,55.0,91,73,30,30.09,29.97,6,1,6,1.18
2013-9-30,81.5,73.3,72.1,75.1,69.7,68.5,91,88,75,30.00,29.91,6,0,6,0.55
2013-10-1,97.2,75.9,72.1,69.9,66.2,54.1,91,76,25,30.03,29.94,11,1,11,0.00
2013-10-2,98.1,79.6,72.1,76.2,63.1,47.3,91,65,19,30.09,29.97,9,1,10,0.00
2013-10-3,100.8,80.4,72.0,77.6,62.5,46.3,91,62,17,30.06,29.97,10,1,10,0.00
2013-10-4,93.9,79.8,72.0,77.0,66.9,54.6,91,69,31,30.03,29.97,8,2,10,0.20
2013-10-5,102.0,81.2,74.3,72.1,66.9,50.6,90,69,19,30.00,29.88,7,0,7,0.00
2013-10-6,86.0,68.6,57.6,72.5,48.6,31.0,87,54,19,30.09,29.94,10,2,10,0.00
2013-10-7,95.7,66.2,50.4,52.7,42.7,27.0,87,52,11,30.18,30.06,8,1,8,0.00
2013-10-8,96.3,67.5,51.6,59.0,44.9,27.8,91,56,11,30.18,30.06,5,0,5,0.00
2013-10-9,99.5,66.5,52.3,61.5,48.4,31.0,91,66,11,30.18,30.06,6,0,6,0.00
2013-10-10,103.3,71.3,55.9,62.8,50.6,38.2,91,61,12,30.15,30.03,8,0,8,0.00
2013-10-11,100.2,75.5,61.3,70.7,58.2,45.0,91,63,18,30.06,29.97,10,1,10,0.00
2013-10-12,102.7,80.4,69.4,77.2,62.8,45.1,91,63,16,30.18,30.00,8,1,8,0.39
2013-10-13,85.5,73.9,68.7,70.5,64.4,57.2,91,75,40,30.24,30.09,9,0,9,0.04
2013-10-14,96.8,75.7,69.4,73.2,61.8,47.6,91,68,25,30.18,30.03,5,0,5,0.00
2013-10-15,100.2,78.1,67.8,72.3,57.5,41.2,91,58,15,30.09,29.97,8,1,8,0.00
2013-10-16,104.2,78.0,67.8,71.4,58.6,45.0,91,59,16,30.03,29.94,6,1,6,0.00
2013-10-17,83.5,67.3,56.5,61.9,56.3,46.8,91,70,31,30.12,30.03,6,1,6,0.00
2013-10-18,86.0,64.7,54.1,62.1,48.9,35.6,92,63,20,30.12,29.94,8,0,8,0.00
2013-10-19,75.2,61.9,50.7,60.6,49.1,36.0,91,67,28,30.15,30.00,9,1,9,0.24
2013-10-20,90.3,61.9,44.8,53.0,41.5,28.4,92,58,13,30.18,30.03,4,0,5,0.00
2013-10-21,77.9,64.5,53.8,61.0,54.0,49.4,89,71,38,30.09,30.00,4,0,4,0.00
2013-10-22,80.4,65.0,52.3,62.0,52.3,40.5,91,67,30,30.15,30.03,9,1,9,0.00
2013-10-23,101.8,66.3,48.9,55.2,40.7,22.0,92,54,10,30.21,30.12,4,0,4,0.00
2013-10-24,100.8,68.0,49.8,56.3,45.2,30.0,90,56,11,30.30,30.18,5,0,6,0.00
2013-10-25,92.1,67.0,52.7,55.3,40.9,24.9,89,48,12,30.45,30.27,4,0,4,0.00
2013-10-26,93.9,64.2,46.2,58.1,41.4,23.3,89,52,11,30.36,30.18,8,1,8,0.00
2013-10-27,84.4,66.5,60.6,70.4,60.7,51.1,92,83,35,30.18,30.06,11,1,11,0.16
2013-10-28,101.5,72.1,59.0,65.7,55.7,42.7,91,64,15,30.21,30.09,6,0,6,0.00
2013-10-29,93.2,73.6,65.8,69.0,58.4,44.7,91,65,21,30.24,30.15,13,2,13,0.00
2013-10-30,82.2,73.3,68.0,72.2,64.7,58.1,92,76,46,30.18,29.97,15,3,15,0.35
2013-10-31,77.5,73.2,60.4,73.6,69.0,57.8,92,87,70,29.97,29.85,15,4,15,2.17
2013-11-1,93.9,67.2,57.6,69.3,52.6,32.0,94,69,14,30.03,29.91,6,0,6,1.46
2013-11-2,89.8,63.7,48.9,58.7,38.1,15.8,91,50,12,30.27,30.00,12,2,12,0.00
2013-11-3,87.6,57.0,43.0,44.7,34.2,18.5,85,51,13,30.33,30.18,8,0,8,0.00
2013-11-4,89.4,65.3,47.3,49.2,43.7,35.9,89,52,18,30.21,30.12,13,1,13,0.00
2013-11-5,93.7,72.6,62.6,65.0,55.6,45.3,89,60,20,30.18,30.09,14,3,14,0.00
2013-11-6,95.5,71.5,59.0,67.8,62.6,47.8,91,78,22,30.27,30.09,8,2,8,0.31
2013-11-7,81.3,59.0,48.4,44.2,36.8,21.6,75,51,14,30.42,30.27,9,3,9,0.31
2013-11-9,75.4,73.4,72.3,31.9,30.7,27.4,22,21,18,30.27,30.24,8,1,8,0.00
2013-11-13,40.5,40.2,39.9,19.8,19.6,19.4,44,43,43,30.48,30.48,0,0,0,0.00
2013-11-14,69.8,48.7,34.5,37.2,26.0,18.8,57,43,17,30.48,30.18,4,0,5,0.00
2013-11-15,88.0,64.7,51.4,53.7,43.4,36.6,75,50,21,30.18,30.00,6,1,6,0.00
2013-11-16,78.3,71.1,61.7,67.4,62.0,53.7,88,74,50,30.06,29.91,11,3,11,0.00
2013-11-17,86.0,77.6,73.0,70.9,66.5,58.8,86,71,42,30.00,29.91,10,3,11,0.00
2013-11-18,70.3,70.3,70.3,37.5,37.5,37.3,30,30,30,30.12,30.12,0,0,0,0.00
2013-11-19,71.6,60.2,51.3,31.2,28.0,23.1,38,30,16,30.27,30.12,5,1,5,0.00
2013-11-20,84.6,61.1,43.7,33.2,28.0,24.4,53,31,14,30.15,30.06,6,1,6,0.00
2013-11-26,44.6,43.5,41.7,36.8,35.5,34.3,78,73,67,30.27,30.06,8,3,10,0.28
2013-11-27,71.1,47.1,34.3,35.8,28.1,14.1,80,55,15,30.50,30.27,8,2,9,0.00
2013-11-28,65.1,37.9,32.5,26.2,23.2,16.9,69,58,23,30.56,30.44,6,0,6,0.00
2013-11-29,74.8,40.9,30.4,30.8,23.3,19.4,71,55,16,30.59,30.53,4,0,4,0.00
2013-11-30,76.8,39.9,35.8,32.2,23.5,22.4,59,54,18,30.48,30.42,4,0,4,0.00